This is the latest recevied weather packets stored in our database for station/object K0WXC-1. If no packets are shown the sender has not sent any weather packets the latest 1 day(s).
| Time | Temp. | Humidity | Pressure | Rain* | Wind** | Luminosity | Snow |
|---|---|---|---|---|---|---|---|
| 1778075188 | 8.89° C | 53% | 1003.9 hPa | 0 mm | 0.89 m/s, 37° | - | - |
| 1778075128 | 8.89° C | 57% | 1003.8 hPa | 0 mm | 0.45 m/s, 167° | - | - |
| 1778074888 | 8.89° C | 57% | 1003.8 hPa | 0 mm | 0.45 m/s, 167° | - | - |
| 1778074828 | 8.33° C | 55% | 1003.7 hPa | 0 mm | 0.89 m/s, 251° | - | - |
| 1778074768 | 8.33° C | 55% | 1003.7 hPa | 0 mm | 0.89 m/s, 251° | - | - |
| 1778074588 | 8.33° C | 55% | 1003.7 hPa | 0 mm | 0.89 m/s, 251° | - | - |
| 1778074408 | 8.33° C | 55% | 1003.7 hPa | 0 mm | 2.68 m/s, 289° | - | - |
| 1778074348 | 8.33° C | 55% | 1003.7 hPa | 0 mm | 2.68 m/s, 289° | - | - |
| 1778074288 | 8.33° C | 55% | 1003.7 hPa | 0 mm | 2.68 m/s, 289° | - | - |
| 1778074228 | 8.33° C | 57% | 1003.9 hPa | 0 mm | 0.45 m/s, 208° | - | - |
| 1778074168 | 8.33° C | 57% | 1003.9 hPa | 0 mm | 0.45 m/s, 208° | - | - |
| 1778073988 | 8.33° C | 57% | 1003.9 hPa | 0 mm | 0.45 m/s, 208° | - | - |
| 1778073868 | 7.78° C | 57% | 1003.6 hPa | 0 mm | 0.89 m/s, 223° | - | - |
| 1778073688 | 7.78° C | 57% | 1003.6 hPa | 0 mm | 0.89 m/s, 223° | - | - |
| 1778073568 | 7.78° C | 57% | 1003.5 hPa | 0 mm | 0.89 m/s, 45° | - | - |
| 1778073508 | 7.78° C | 57% | 1003.5 hPa | 0 mm | 0.89 m/s, 45° | - | - |
| 1778073268 | 7.78° C | 58% | 1003.6 hPa | 0 mm | 0.89 m/s, 275° | - | - |
| 1778073148 | 7.78° C | 58% | 1003.6 hPa | 0 mm | 0.89 m/s, 275° | - | - |
| 1778073028 | 7.22° C | 57% | 1003.6 hPa | 0 mm | 0.89 m/s, 96° | - | - |
| 1778072788 | 7.22° C | 57% | 1003.6 hPa | 0 mm | 0.89 m/s, 96° | - | - |
| 1778072668 | 7.22° C | 60% | 1003.6 hPa | 0 mm | 1.79 m/s, 8° | - | - |
| 1778072608 | 7.22° C | 60% | 1003.6 hPa | 0 mm | 1.79 m/s, 8° | - | - |
| 1778072548 | 7.22° C | 60% | 1003.6 hPa | 0 mm | 1.79 m/s, 8° | - | - |
| 1778072428 | 7.22° C | 60% | 1003.5 hPa | 0 mm | 0.89 m/s, 214° | - | - |
| 1778072368 | 7.22° C | 60% | 1003.5 hPa | 0 mm | 0.89 m/s, 214° | - | - |
* Rain latest hour (hover to see other rain measurements)
** Current wind speed in m/s (hover to see current wind gust speed)